Weather History for Sussex, NJ

Change the Weather History Date:

Sunday, May 4, 2014

  Actual Average Record
Temperature  
Mean Temperature 57 °F -  
Max Temperature 64 °F 66 °F 90 °F (2001)
Min Temperature 50 °F 39 °F 25 °F (1986)
Degree Days  
Heating Degree Days 8    
Growing Degree Days 7 (Base 50)    
Moisture  
Dew Point 36 °F    
Average Humidity 50    
Maximum Humidity 83    
Minimum Humidity 23    
Precipitation  
Precipitation 0.00 in - - ()
Sea Level Pressure  
Sea Level Pressure 29.74 in    
Wind  
Wind Speed 7 mph (West)    
Max Wind Speed 14 mph    
Max Gust Speed 28 mph    
Visibility 10 miles    
Events      
Averages and records for this station are not official NWS values.
T = Trace of Precipitation, MM = Missing Value Source: NWS Daily Summary

Daily Weather History Graph

Daily Weather History Graph

Search for Another Location

Airport:

Trip Planner

Search our weather history database for the weather conditions in past years. The results will help you decide how hot, cold, wet, or windy it might be!

Date:

Astronomy

May. 04, 2014 Rise Set
Actual Time 5:52 AM EDT 7:58 PM EDT
Civil Twilight 5:22 AM EDT 8:29 PM EDT
Nautical Twilight 4:45 AM EDT 9:06 PM EDT
Astronomical Twilight 4:04 AM EDT 9:47 PM EDT
Moon 10:13 AM EDT (5/4) 12:02 AM EDT (5/4)
Length of Visible Light 15h 07m
Length of Day
14h 06m
Waxing Crescent, 27% of the Moon is Illuminated
May 4
Waxing Crescent
May 6
First Quarter
May 14
Full
May 21
Last Quarter
May 28
New

Hourly Weather History & Observations

Time (EDT) Temp. Dew Point Humidity Pressure Visibility Wind Dir Wind Speed Gust Speed Precip Events Conditions
12:53 AM 53.1 °F 48.0 °F 83% 29.77 in 10.0 mi SW 5.8 mph - N/A   Scattered Clouds
1:53 AM 52.0 °F 46.9 °F 83% 29.76 in 10.0 mi SW 6.9 mph - N/A   Clear
2:53 AM 50.0 °F 45.0 °F 83% 29.75 in 10.0 mi SW 4.6 mph - N/A   Mostly Cloudy
3:53 AM 50.0 °F 44.1 °F 80% 29.75 in 10.0 mi SSW 5.8 mph - N/A   Clear
4:53 AM 50.0 °F 42.1 °F 74% 29.76 in 10.0 mi WSW 3.5 mph - N/A   Clear
5:53 AM 50.0 °F 41.0 °F 71% 29.77 in 10.0 mi SW 6.9 mph - N/A   Partly Cloudy
6:53 AM 52.0 °F 42.1 °F 69% 29.77 in 10.0 mi SW 3.5 mph - N/A   Clear
7:53 AM 54.0 °F 42.1 °F 64% 29.76 in 10.0 mi Variable 5.8 mph - N/A   Clear
8:53 AM 57.9 °F 41.0 °F 53% 29.75 in 10.0 mi WSW 9.2 mph 20.7 mph N/A   Partly Cloudy
9:53 AM 60.1 °F 35.1 °F 39% 29.72 in 10.0 mi West 11.5 mph 21.9 mph N/A   Mostly Cloudy
10:53 AM 62.1 °F 32.0 °F 32% 29.71 in 10.0 mi West 10.4 mph 20.7 mph N/A   Scattered Clouds
11:53 AM 63.0 °F 32.0 °F 31% 29.69 in 10.0 mi WNW 11.5 mph 24.2 mph N/A   Scattered Clouds
12:53 PM 62.1 °F 34.0 °F 35% 29.67 in 10.0 mi West 10.4 mph 25.3 mph N/A   Scattered Clouds
1:53 PM 64.9 °F 36.0 °F 34% 29.65 in 10.0 mi WSW 10.4 mph 19.6 mph N/A   Mostly Cloudy
2:53 PM 57.9 °F 37.9 °F 47% 29.68 in 9.0 mi NW 8.1 mph 25.3 mph N/A   Mostly Cloudy
3:53 PM 53.1 °F 41.0 °F 64% 29.69 in 6.0 mi Variable 6.9 mph 23.0 mph N/A   Haze
4:53 PM 60.1 °F 39.0 °F 46% 29.68 in 10.0 mi WSW 11.5 mph 19.6 mph N/A   Clear
5:53 PM 62.1 °F 24.1 °F 23% 29.69 in 10.0 mi WNW 11.5 mph 27.6 mph N/A   Scattered Clouds
6:53 PM 61.0 °F 23.0 °F 23% 29.71 in 10.0 mi WNW 12.7 mph 24.2 mph N/A   Partly Cloudy
7:53 PM 57.9 °F 24.1 °F 27% 29.74 in 10.0 mi Variable 6.9 mph - N/A   Partly Cloudy
8:53 PM 57.0 °F 26.1 °F 30% 29.77 in 10.0 mi Variable 6.9 mph 18.4 mph N/A   Clear
9:53 PM 55.9 °F 27.0 °F 33% 29.80 in 10.0 mi NW 8.1 mph - N/A   Clear
10:53 PM 55.0 °F 28.0 °F 35% 29.81 in 10.0 mi WNW 13.8 mph 20.7 mph N/A   Clear
11:53 PM 54.0 °F 30.0 °F 40% 29.82 in 10.0 mi Variable 5.8 mph 17.3 mph N/A   Clear